This is the latest recevied weather packets stored in our database for station/object N2RDT. If no packets are shown the sender has not sent any weather packets the latest 10 day(s).
| Time | Temp. | Humidity | Pressure | Rain* | Wind** | Luminosity | Snow |
|---|---|---|---|---|---|---|---|
| 1777919948 | 24.44° C | 32% | 1014.8 hPa | 0 mm | - | 757 W/m² | - |
| 1777919645 | 25° C | 33% | 1015.1 hPa | 0 mm | - | 1019 W/m² | - |
| 1777919343 | 25° C | 30% | 1015.1 hPa | 0 mm | - | 989 W/m² | - |
| 1777919040 | 24.44° C | 32% | 1015.3 hPa | 0 mm | - | 938 W/m² | - |
| 1777918736 | 23.89° C | 31% | 1015.2 hPa | 0 mm | - | 923 W/m² | - |
| 1777918434 | 23.89° C | 30% | 1015.3 hPa | 0 mm | - | 925 W/m² | - |
| 1777918133 | 24.44° C | 31% | 1015.4 hPa | 0 mm | - | 930 W/m² | - |
| 1777917831 | 23.89° C | 31% | 1015.3 hPa | 0 mm | - | 934 W/m² | - |
| 1777917529 | 23.89° C | 33% | 1015.3 hPa | 0 mm | - | 927 W/m² | - |
| 1777917225 | 23.89° C | 34% | 1015.3 hPa | 0 mm | - | 940 W/m² | - |
| 1777916923 | 23.89° C | 36% | 1015.6 hPa | 0 mm | - | 943 W/m² | - |
| 1777916621 | 23.89° C | 33% | 1015.6 hPa | 0 mm | - | 946 W/m² | - |
| 1777916317 | 23.33° C | 33% | 1015.5 hPa | 0 mm | - | 949 W/m² | - |
| 1777916014 | 23.89° C | 33% | 1015.7 hPa | 0 mm | - | 950 W/m² | - |
| 1777915711 | 23.89° C | 35% | 1015.7 hPa | 0 mm | - | 947 W/m² | - |
| 1777915408 | 23.89° C | 34% | 1015.8 hPa | 0 mm | - | 949 W/m² | - |
| 1777915104 | 23.33° C | 36% | 1015.9 hPa | 0 mm | - | 950 W/m² | - |
| 1777914801 | 23.33° C | 34% | 1016 hPa | 0 mm | - | 953 W/m² | - |
| 1777914498 | 23.33° C | 36% | 1016.2 hPa | 0 mm | - | 956 W/m² | - |
| 1777914195 | 22.78° C | 40% | 1016.1 hPa | 0 mm | - | 956 W/m² | - |
| 1777913891 | 22.78° C | 40% | 1016.1 hPa | 0 mm | - | 956 W/m² | - |
| 1777913588 | 22.78° C | 35% | 1016.2 hPa | 0 mm | - | 952 W/m² | - |
| 1777913284 | 22.78° C | 38% | 1016.3 hPa | 0 mm | - | 953 W/m² | - |
| 1777912981 | 23.33° C | 35% | 1016.3 hPa | 0 mm | - | 946 W/m² | - |
| 1777912677 | 22.78° C | 41% | 1016.3 hPa | 0 mm | - | 952 W/m² | - |
* Rain latest hour (hover to see other rain measurements)
** Current wind speed in m/s (hover to see current wind gust speed)